^^

New Milford Station Historical Data

 
Daily Summary for May 22, 2019 Units:  English    Metric   Both
Daily Weekly Monthly Yearly Custom
  Current: High: Low: Average:
Temperature: 46.7 °F 50.3 °F 46.7 °F 48.1 °F
Dew Point: 42.4 °F 43.1 °F 42.1 °F 42.5 °F
Humidity: 85% 85% 76% 81%
Wind Speed: 0mph 0mph 0mph 0mph
Wind Gust: 0mph 0mph - -
WindCalm - - North
Pressure: 30.08 in 30.08 in 30.05 in -
Precipitation: 0 in      
Historical Graphs
 
 
Tabular Data for May 22, 2019
Time Temperature Dew Point Pressure Wind Wind Speed Wind Gust Humidity Rainfall Rate (Hourly) solar
00:00 50.3 °F 43 °F 30.05 in Calm     76% 0 in WeatherDisplay:10.37 W/m2
00:05 50.1 °F 42.8 °F 30.05 in Calm     76% 0 in WeatherDisplay:10.37 W/m2
00:10 49.9 °F 43 °F 30.05 in Calm     77% 0 in WeatherDisplay:10.37 W/m2
00:15 49.8 °F 42.9 °F 30.05 in Calm     77% 0 in WeatherDisplay:10.37 W/m2
00:20 49.8 °F 42.9 °F 30.05 in Calm     77% 0 in WeatherDisplay:10.37 W/m2
00:25 49.7 °F 43.1 °F 30.05 in Calm     78% 0 in WeatherDisplay:10.37 W/m2
00:30 49.4 °F 42.5 °F 30.05 in Calm     77% 0 in WeatherDisplay:10.37 W/m2
00:35 49.4 °F 42.8 °F 30.05 in Calm     78% 0 in WeatherDisplay:10.37 W/m2
00:40 49.2 °F 42.7 °F 30.05 in Calm     78% 0 in WeatherDisplay:10.37 W/m2
00:45 49.3 °F 42.7 °F 30.05 in Calm     78% 0 in WeatherDisplay:10.37 W/m2
00:50 49.2 °F 42.6 °F 30.05 in Calm     78% 0 in WeatherDisplay:10.37 W/m2
00:55 48.9 °F 42.4 °F 30.05 in Calm     78% 0 in WeatherDisplay:10.37 W/m2
01:00 48.8 °F 42.6 °F 30.05 in Calm     79% 0 in WeatherDisplay:10.37 W/m2
01:05 48.7 °F 42.2 °F 30.05 in Calm     78% 0 in WeatherDisplay:10.37 W/m2
01:10 48.6 °F 42.1 °F 30.05 in Calm     78% 0 in WeatherDisplay:10.37 W/m2
01:15 48.5 °F 42.3 °F 30.05 in Calm     79% 0 in WeatherDisplay:10.37 W/m2
01:20 48.4 °F 42.2 °F 30.05 in Calm     79% 0 in WeatherDisplay:10.37 W/m2
01:25 48.3 °F 42.4 °F 30.05 in Calm     80% 0 in WeatherDisplay:10.37 W/m2
01:30 48.2 °F 42.3 °F 30.05 in Calm     80% 0 in WeatherDisplay:10.37 W/m2
01:35 48.2 °F 42.6 °F 30.05 in Calm     81% 0 in WeatherDisplay:10.37 W/m2
01:40 48 °F 42.5 °F 30.05 in Calm     81% 0 in WeatherDisplay:10.37 W/m2
01:45 47.9 °F 42.4 °F 30.05 in Calm     81% 0 in WeatherDisplay:10.37 W/m2
01:50 47.8 °F 42.3 °F 30.06 in Calm     81% 0 in WeatherDisplay:10.37 W/m2
01:55 47.8 °F 42.6 °F 30.06 in Calm     82% 0 in WeatherDisplay:10.37 W/m2
02:00 47.7 °F 42.5 °F 30.06 in Calm     82% 0 in WeatherDisplay:10.37 W/m2
02:05 47.7 °F 42.4 °F 30.06 in Calm     82% 0 in WeatherDisplay:10.37 W/m2
02:10 47.5 °F 42.3 °F 30.06 in Calm     82% 0 in WeatherDisplay:10.37 W/m2
02:15 47.4 °F 42.5 °F 30.06 in Calm     83% 0 in WeatherDisplay:10.37 W/m2
02:20 47.4 °F 42.2 °F 30.06 in Calm     82% 0 in WeatherDisplay:10.37 W/m2
02:25 47.4 °F 42.5 °F 30.06 in Calm     83% 0 in WeatherDisplay:10.37 W/m2
02:30 47.4 °F 42.5 °F 30.07 in Calm     83% 0 in WeatherDisplay:10.37 W/m2
02:35 47.3 °F 42.4 °F 30.07 in Calm     83% 0 in WeatherDisplay:10.37 W/m2
02:40 47.2 °F 42.3 °F 30.07 in Calm     83% 0 in WeatherDisplay:10.37 W/m2
02:45 47.2 °F 42.6 °F 30.07 in Calm     84% 0 in WeatherDisplay:10.37 W/m2
02:50 47.3 °F 42.7 °F 30.07 in Calm     84% 0 in WeatherDisplay:10.37 W/m2
02:55 47.2 °F 42.6 °F 30.07 in Calm     84% 0 in WeatherDisplay:10.37 W/m2
03:00 47.1 °F 42.5 °F 30.07 in Calm     84% 0 in WeatherDisplay:10.37 W/m2
03:05 47 °F 42.4 °F 30.07 in Calm     84% 0 in WeatherDisplay:10.37 W/m2
03:10 47 °F 42.4 °F 30.08 in Calm     84% 0 in WeatherDisplay:10.37 W/m2
03:15 47 °F 42.5 °F 30.08 in Calm     84% 0 in WeatherDisplay:10.37 W/m2
03:20 47 °F 42.4 °F 30.07 in Calm     84% 0 in WeatherDisplay:10.37 W/m2
03:25 46.8 °F 42.3 °F 30.08 in Calm     84% 0 in WeatherDisplay:10.37 W/m2
03:30 46.8 °F 42.2 °F 30.08 in Calm     84% 0 in WeatherDisplay:10.37 W/m2
03:35 46.7 °F 42.4 °F 30.08 in Calm     85% 0 in WeatherDisplay:10.37 W/m2
03:40 46.7 °F 42.4 °F 30.08 in Calm     85% 0 in WeatherDisplay:10.37 W/m2
03:45 46.7 °F 42.4 °F 30.08 in Calm     85% 0 in WeatherDisplay:10.37 W/m2
Compliments of Weather Underground - 1 mb